Change the Weather History Date:

Thursday, February 21, 2013

  Actual Average Record
Temperature  
Mean Temperature 69 °F 72 °F  
Max Temperature 75 °F 81 °F 86 °F (1974)
Min Temperature 63 °F 63 °F 53 °F (2009)
Degree Days  
Heating Degree Days 0 0  
Month to date heating degree days 0 0  
Since 1 July heating degree days 0 0  
Cooling Degree Days 4 7  
Month to date cooling degree days 142 147  
Year to date cooling degree days 373 364  
Growing Degree Days 18 (Base 50)    
Moisture  
Dew Point 67 °F    
Average Humidity 92    
Maximum Humidity 100    
Minimum Humidity 84    
Precipitation  
Precipitation 1.51 in 0.07 in 2.33 in (1968)
Month to date precipitation 2.86 1.43  
Year to date precipitation 4.85 4.30  
Snow  
Snow 0.00 in - - ()
Month to date snowfall 0.0  
Since 1 July snowfall 0.0  
Snow Depth -    
Sea Level Pressure  
Sea Level Pressure 30.13 in    
Wind  
Wind Speed 15 mph (NE)    
Max Wind Speed 25 mph    
Max Gust Speed 36 mph    
Visibility 7 miles    
Events Rain    
T = Trace of Precipitation, MM = Missing Value Source: NWS Daily Summary

Daily Weather History Graph

Daily Weather History Graph

Search for Another Location

Airport or City:

Trip Planner

Search our weather history database for the weather conditions in past years. The results will help you decide how hot, cold, wet, or windy it might be!

Date:

Astronomy

Feb. 21, 2013 Rise Set
Actual Time 6:51 AM HST 6:27 PM HST
Civil Twilight 6:29 AM HST 6:49 PM HST
Nautical Twilight 6:03 AM HST 7:15 PM HST
Astronomical Twilight 5:37 AM HST 7:41 PM HST
Moon 3:09 PM HST (2/21) 3:45 AM HST (2/21)
Length of Visible Light 12h 20m
Length of Day
11h 35m
Waxing Gibbous, 85% of the Moon is Illuminated
Feb 21
Waxing Gibbous
Feb 25
Full
Mar 4
Last Quarter
Mar 11
New
Mar 19
First Quarter

Hourly Weather History & Observations

Time (HST) Temp. Dew Point Humidity Pressure Visibility Wind Dir Wind Speed Gust Speed Precip Events Conditions
4:54 AM 68.0 °F 64.0 °F 87% 30.11 in 10.0 mi NE 12.7 mph - N/A   Clear
5:54 AM 69.1 °F 66.0 °F 90% 30.12 in 10.0 mi NNE 18.4 mph - N/A   Clear
6:54 AM 69.1 °F 64.9 °F 87% 30.14 in 10.0 mi NE 16.1 mph - N/A   Clear
7:54 AM 70.0 °F 64.9 °F 84% 30.15 in 10.0 mi NE 13.8 mph 19.6 mph N/A   Partly Cloudy
8:54 AM 72.0 °F 68.0 °F 87% 30.16 in 10.0 mi NE 16.1 mph 25.3 mph 0.00 in Rain Light Rain
9:54 AM 73.0 °F 70.0 °F 90% 30.16 in 10.0 mi ENE 17.3 mph 26.5 mph 0.03 in Rain Light Rain
10:54 AM 72.0 °F 68.0 °F 87% 30.14 in 10.0 mi ENE 18.4 mph 27.6 mph 0.00 in   Scattered Clouds
11:54 AM 73.0 °F 69.1 °F 87% 30.14 in 10.0 mi NE 9.2 mph 24.2 mph 0.00 in Rain Light Rain
12:54 PM 73.9 °F 69.1 °F 85% 30.12 in 10.0 mi NE 16.1 mph 24.2 mph 0.00 in   Mostly Cloudy
1:54 PM 72.0 °F 70.0 °F 93% 30.11 in 6.0 mi NE 12.7 mph - 0.02 in Rain Rain
2:33 PM 69.8 °F 69.8 °F 100% 30.09 in 2.5 mi ENE 17.3 mph 28.8 mph 0.11 in Rain Heavy Rain
2:54 PM 70.0 °F 69.1 °F 97% 30.09 in 2.5 mi NE 13.8 mph 26.5 mph 0.34 in Rain Heavy Rain
3:54 PM 69.1 °F 68.0 °F 96% 30.10 in 2.5 mi NE 18.4 mph - 0.57 in Rain Heavy Rain
3:55 PM 69.1 °F 68.0 °F 96% 30.10 in 2.5 mi NE 18.4 mph - 0.57 in Rain Heavy Rain
4:38 PM 69.8 °F 68.0 °F 94% 30.10 in 3.0 mi ENE 13.8 mph 24.2 mph 0.11 in Rain Rain
4:54 PM 70.0 °F 69.1 °F 97% 30.12 in 3.0 mi ENE 12.7 mph - 0.15 in Rain Rain
5:30 PM 69.8 °F 68.0 °F 94% 30.11 in 1.5 mi ENE 15.0 mph 20.7 mph 0.08 in Rain Heavy Rain
5:54 PM 68.0 °F 64.9 °F 90% 30.11 in 1.5 mi ENE 20.7 mph 31.1 mph 0.20 in Rain Heavy Rain
6:18 PM 68.0 °F 64.4 °F 88% 30.10 in 3.0 mi NE 17.3 mph 27.6 mph 0.12 in Rain Heavy Rain
6:54 PM 69.1 °F 66.0 °F 90% 30.13 in 10.0 mi ENE 15.0 mph - 0.17 in Rain Light Rain
7:54 PM 70.0 °F 66.9 °F 90% 30.14 in 10.0 mi NE 15.0 mph - 0.01 in   Overcast
8:54 PM 68.0 °F 66.9 °F 96% 30.17 in 10.0 mi ENE 19.6 mph 27.6 mph 0.00 in Rain Light Rain
9:54 PM 70.0 °F 66.9 °F 90% 30.17 in 10.0 mi NE 15.0 mph - 0.02 in   Mostly Cloudy
10:54 PM 70.0 °F 66.9 °F 90% 30.15 in 10.0 mi NE 16.1 mph 24.2 mph N/A   Overcast
11:54 PM 71.1 °F 68.0 °F 90% 30.15 in 10.0 mi NE 18.4 mph - N/A   Mostly Cloudy